TimeMDT,TemperatureF,Dew PointF,Humidity,Sea Level PressureIn,VisibilityMPH,Wind Direction,Wind SpeedMPH,Gust SpeedMPH,PrecipitationIn,Events,Conditions,WindDirDegrees,DateUTC
12:53 AM,72.0,54.0,53,29.91,10.0,SSW,3.5,-,N/A,,Clear,210,2013-08-03 06:53:00
1:53 AM,71.1,54.0,55,29.89,10.0,West,5.8,-,N/A,,Clear,280,2013-08-03 07:53:00
2:53 AM,72.0,53.1,51,29.87,10.0,NNW,4.6,-,N/A,,Clear,330,2013-08-03 08:53:00
3:53 AM,71.1,52.0,51,29.87,10.0,SSW,6.9,-,N/A,,Clear,200,2013-08-03 09:53:00
4:53 AM,69.1,54.0,58,29.86,10.0,NW,8.1,-,N/A,,Clear,320,2013-08-03 10:53:00
5:53 AM,68.0,54.0,61,29.91,10.0,South,8.1,-,N/A,,Clear,170,2013-08-03 11:53:00
6:53 AM,70.0,54.0,57,29.92,10.0,East,6.9,-,N/A,,Clear,100,2013-08-03 12:53:00
7:53 AM,72.0,57.0,59,29.94,10.0,SE,9.2,-,N/A,,Partly Cloudy,140,2013-08-03 13:53:00
8:53 AM,73.0,64.0,73,29.97,10.0,SE,9.2,-,N/A,,Clear,130,2013-08-03 14:53:00
9:53 AM,75.0,66.0,73,29.98,10.0,SSE,6.9,-,N/A,,Partly Cloudy,160,2013-08-03 15:53:00
10:53 AM,75.9,64.9,69,29.97,10.0,SSE,6.9,-,N/A,,Partly Cloudy,160,2013-08-03 16:53:00
11:53 AM,79.0,64.0,60,29.96,10.0,SE,5.8,-,N/A,,Clear,140,2013-08-03 17:53:00
12:53 PM,82.9,61.0,47,29.94,10.0,SSE,11.5,18.4,N/A,,Clear,160,2013-08-03 18:53:00
1:53 PM,82.9,62.1,49,29.93,10.0,ESE,13.8,-,N/A,,Clear,110,2013-08-03 19:53:00
2:53 PM,86.0,59.0,40,29.90,10.0,ESE,18.4,-,N/A,,Clear,120,2013-08-03 20:53:00
3:53 PM,86.0,59.0,40,29.87,10.0,SE,15.0,23.0,N/A,,Clear,140,2013-08-03 21:53:00
4:53 PM,84.0,61.0,46,29.90,10.0,East,23.0,29.9,N/A,,Scattered Clouds,100,2013-08-03 22:53:00
5:53 PM,80.1,61.0,52,29.91,10.0,SE,26.5,-,N/A,,Clear,130,2013-08-03 23:53:00
6:53 PM,75.9,63.0,64,29.95,10.0,ESE,20.7,27.6,N/A,,Scattered Clouds,110,2013-08-04 00:53:00
7:35 PM,62.6,60.8,94,30.21,1.8,NW,25.3,-,0.03,Rain,Heavy Rain,310,2013-08-04 01:35:00
7:39 PM,60.8,60.8,100,30.21,0.8,NNW,15.0,27.6,0.17,Rain,Heavy Rain,330,2013-08-04 01:39:00
7:48 PM,60.8,60.8,100,30.19,1.2,East,4.6,-,0.38,Rain,Heavy Rain,80,2013-08-04 01:48:00
7:53 PM,61.0,60.1,97,30.04,2.0,East,3.5,-,0.43,Rain,Heavy Rain,90,2013-08-04 01:53:00
8:02 PM,62.6,60.8,94,30.20,4.0,ENE,11.5,-,0.04,Rain,Light Rain,70,2013-08-04 02:02:00
8:20 PM,62.6,60.8,94,30.20,2.0,SE,17.3,-,0.11,Rain,Rain,140,2013-08-04 02:20:00
8:29 PM,62.6,60.8,94,30.18,7.0,SE,13.8,23.0,0.12,Rain,Light Rain,130,2013-08-04 02:29:00
8:53 PM,64.0,61.0,90,30.07,10.0,SSE,13.8,21.9,0.12,Rain,Light Rain,160,2013-08-04 02:53:00
9:08 PM,64.4,62.6,94,30.23,10.0,SW,12.7,-,0.00,,Overcast,220,2013-08-04 03:08:00
9:53 PM,64.0,61.0,90,30.09,10.0,SW,6.9,-,0.00,,Overcast,230,2013-08-04 03:53:00
10:38 PM,64.4,60.8,88,30.29,10.0,NW,10.4,-,0.00,Rain-Thunderstorm,Light Rain,320,2013-08-04 04:38:00
10:53 PM,66.0,62.1,87,30.12,10.0,North,11.5,-,0.00,Rain-Thunderstorm,Light Rain,360,2013-08-04 04:53:00
11:00 PM,66.2,62.6,88,30.28,10.0,North,11.5,-,0.00,,Overcast,10,2013-08-04 05:00:00
11:25 PM,66.2,62.6,88,30.27,10.0,NNE,8.1,-,0.00,,Overcast,30,2013-08-04 05:25:00
11:53 PM,66.0,63.0,90,30.09,10.0,NNW,10.4,-,0.00,,Overcast,340,2013-08-04 05:53:00